Regional Weather Roundup
Issued by NWS Grand Forks, ND

Home | Current Version | Previous Version | Graphics & Text | Print | Product List | Glossary On
Versions: 1 2 3 4 5 6 7 8 9 10 11 12 13 14 15 16 17 18 19 20 21 22 23 24 25 26 27 28 29 30 31 32 33 34 35 36 37 38 39 40 41 42 43 44 45 46 47 48 49 50
000
ASUS43 KFGF 310710
RWRFGF
PRAIRIE TO PINES  WEATHER ROUNDUP
NATIONAL WEATHER SERVICE EASTERN NORTH DAKOTA/GRAND FORKS ND
200 AM CDT MON AUG 31 2015

 **SATELLITE DATA USED TO AUGMENT SKY COVER AT AUTOMATED STATIONS**
 *****  WEATHER ACROSS EASTERN NORTH DAKOTA  *****

CITY           SKY/WX    TMP DP  RH WIND       PRES   REMARKS
GRAND FORKS    PTCLDY    70  66  87 S14       29.65S
GRAND FRKS AFB PTCLDY    70  67  89 S10       29.65F
GRAND FRKS NWS   N/A     70 N/A N/A S10         N/A
DEVILS LAKE    PTCLDY    70  63  78 S6        29.62F
FARGO          CLEAR     69  61  75 S18G26    29.70S
WAHPETON ARPT  SUNNY     63  59  88 SE12      29.76S
$$

 ***** WEATHER ACROSS CENTRAL AND WESTERN NORTH DAKOTA  *****

CITY           SKY/WX    TMP DP  RH WIND       PRES   REMARKS
BISMARCK       CLOUDY    70  60  70 N3        29.62R
MINOT          CLOUDY    65  51  60 W5        29.67F
JAMESTOWN      CLEAR     69  66  90 S15       29.66F
MINOT AFB      CLOUDY    67  52  57 CALM      29.66F
GARRISON         N/A     64  57  78 NE6       29.69R
WILLISTON      LGT RAIN  67  52  58 CALM      29.70R
DICKINSON      CLOUDY    69  50  50 NE6       29.72F
HETTINGER      MOCLDY    66  53  63 NW8       29.71R HAZE
$$

 *****  OTHER AIRPORT OBSERVATIONS IN OUR AREA  *****

CITY           SKY/WX    TMP DP  RH WIND       PRES   REMARKS
WALHALLA       FAIR      73  73 100 MISG      29.61F
GRAFTON AIRPOR FAIR      70  70 100 S10       29.65S
VALLEY CITY AR PTSUNNY   68  68 100 S21       29.67F
CANDO          NOT AVBL
CAVALIER APRT  FAIR      72  66  83 S8        29.62F
GWINNER        FAIR      72  64  78 S21G26    29.71S
SHEYENNE NWR     N/A     65  62  90 SE7       29.95
ROLLA          FAIR      63  57  82 NW9       29.68R
 ***** THE ABOVE OBSERVATIONS ARE NON NWS ARE NOT QUALITY
       CONTROLLED AND MAY MIS-REPORT RAIN FOR SNOW...
$$

  *****  WEATHER ACROSS NORTHERN MINNESOTA  *****

CITY           SKY/WX    TMP DP  RH WIND       PRES   REMARKS
FLAG ISLAND    PTCLDY    70  66  88 S8        29.69S
WARROAD        CLEAR     72  66  83 S7        29.69F
ROSEAU         CLEAR     70  64  83 S10       29.68S
HALLOCK        PTCLDY    72  68  88 S13       29.64S
THF RVR FALLS  CLEAR    N/A N/A N/A S10       29.70S
BAUDETTE       PTCLDY    68  64  87 S7        29.72F
WASKISH        PTCLDY    70  63  78 S9        29.75S
CROOKSTON      PTCLDY    70  63  78 S16       29.69F
STEPHEN NDAWN    N/A     70  68  94 S10         N/A
GREENBUSH NDAW   N/A     72  64  78 S8          N/A
$$
  *****  WEATHER ACROSS CENTRAL AND WEST MINNESOTA  *****

CITY           SKY/WX    TMP DP  RH WIND       PRES   REMARKS
FOSSTON        CLEAR     66  57  72 S9        29.74F
BEMIDJI        CLEAR     67  62  83 S9        29.78F
PARK RAPIDS      N/A     67  62  84 S13       29.81S
ELBOW LAKE     FAIR      64  61  90 S14       29.81S
WADENA         PTCLDY    64  61  88 S7        29.82S
DETROIT LAKES  PTCLDY    68  59  73 S12       29.79S
MOORHEAD       PTCLDY    68  61  77 S18G24    29.72S
FERGUS FALLS   CLEAR     64  61  88 S13       29.78F
MORRIS MN      CLEAR     64  63  94 SE12      29.81F FOG
STAPLES        PTCLDY    64  63  94 S13       29.84F
$$
  *****  WEATHER ELSEWHERE ACROSS MINNESOTA  *****

CITY           SKY/WX    TMP DP  RH WIND       PRES   REMARKS
DULUTH         CLOUDY    67  65  93 SW14      29.90S
INTRNTL FALLS  PTCLDY    67  65  93 VRB3      29.77S
ELY            CLEAR     66  63  88 SW8       29.87S
CLOQUET        CLOUDY    66  64  94 S9        29.90S
WHEATON        CLEAR     61  57  88 SE13      29.79F
BRAINERD       PTCLDY    66  65  96 S12       29.87S
HIBBING        PTCLDY    63  62  97 SE5       29.86F
ALEXANDRIA     CLEAR     66  62  87 S10       29.86S
SAINT CLOUD    CLOUDY    66  65  96 S9        29.90R
MINNEAPOLIS    MOCLDY    68  64  87 S6        29.94R
$$

  *****  WEATHER ACROSS SOUTH DAKOTA  *****

CITY           SKY/WX    TMP DP  RH WIND       PRES   REMARKS
SIOUX FALLS    PTCLDY    66  64  93 S13       29.90S
BROOKINGS      CLEAR     64  63  94 S12       29.90S
WATERTOWN      CLEAR     65  63  93 S14       29.83F
HURON          CLEAR     67  65  93 S12       29.79F
SISSETON         N/A     72  59  63 S14G25    29.74F
ABERDEEN       CLEAR     68  63  84 S16G26    29.73S
MITCHELL       CLEAR     68  65  90 S15       29.83S
PIERRE         PTCLDY    72  59  63 SE13      29.70S
MOBRIDGE       CLOUDY    73  61  65 S10       29.63F
RAPID CITY     PTCLDY    71  54  54 SW12      29.78S
$$

  *****  SOME WEATHER IN NEARBY STATES *****

CITY           SKY/WX    TMP DP  RH WIND       PRES   REMARKS
GLASGOW MT     LGT RAIN  60  53  77 NW28G36   29.83S
GREAT FALLS MT CLEAR     54  32  43 SW20      29.92R
CHEYENNE WY    MOCLDY    69  45  41 W10       30.06F
SCOTTSBLUFF NE MOCLDY    72  50  45 CALM      29.91F
OMAHA NE       PTCLDY    66  65  96 SE6       29.96F
DES MOINES IA  CLEAR     69  66  90 SE8       29.98F
DAVENPORT IA   CLEAR     61  60  97 E3        30.02F
CHICAGO IL     MOCLDY    64  63  96 CALM      30.03S FOG
EAU CLAIRE WI  CLEAR     62  60  93 S5        29.97S
LA CROSSE WI   CLEAR     62  62 100 SE6       30.00R FOG
$$

  *****  SOME NATIONAL WEATHER *****

CITY           SKY/WX    TMP DP  RH WIND       PRES   REMARKS
LA GUARDIA NY  CLOUDY    79  66  64 SW9       30.00F
RALEIGH NC     CLOUDY    71  66  84 CALM      30.12F
ATLANTA GA     DRIZZLE   66  64  94 E9        30.08F FOG
NEW ORLEANS LA CLEAR     76  69  79 S3        30.01F
OKLAHOMA CITY  PTCLDY    72  68  87 SE9       29.95F
ALBUQUERQUE NM PTCLDY    76  48  37 NW6       30.14S
SALT LAKE CITY PTCLDY    71  47  42 N3        29.99R
LOS ANGELES CA PTCLDY    71  66  84 CALM      29.85S
BOISE ID       CLEAR     63  43  48 W8        30.02R
SEATTLE WA     CLOUDY    62  49  62 S13       30.01S
$$

*** WEATHER ACROSS MANITOBA...SASKATCHEWAN AND ONTARIO ***
                ***ONTARIO***

CITY           SKY/WX    TMP DP  RH WIND       PRES   REMARKS
GERALDTON      MOCLDY    61  61 100 E6        29.89R
THUNDER BAY    PTCLDY    57  55  94 CALM      29.85S
SIOUX LOOKOUT  MOCLDY    70  68  94 S8        29.75F
TORONTO        CLEAR     66  63  88 W6        30.00S
BIG TROUT LK   CLOUDY    48  48 100 E7        29.86F
PICKLE LAKE    NOT AVBL
DRYDEN         CLEAR     70  66  88 S9        29.75S
KENORA         PTCLDY    72  66  83 S12       29.71F
$$
                *** MANITOBA***

CITY           SKY/WX    TMP DP  RH WIND       PRES   REMARKS
BRANDON        MOCLDY    59  55  88 W10       29.66R
DAUPHIN        CLEAR     61  55  82 W8        29.60S
ISLAND LAKE    CLOUDY    63  57  82 E12G23    29.61F
PILOT MOUND      N/A    N/A N/A N/A S3          N/A
THE PAS        FOG       63  61  94 SE6       29.54F VSB 1
THOMPSON       CLOUDY    57  55  94 E5        29.60F
WINNIPEG       MOCLDY    73  70  88 S10       29.59F
LYNN LAKE      LGT RAIN  55  55 100 MISG      29.53F FOG
CHURCHILL      LGT RAIN  46  45  93 SE18G24   29.84R
$$
                ***SASKATCHEWAN***

CITY           SKY/WX    TMP DP  RH WIND       PRES   REMARKS
ESTEVAN        CLOUDY    61  54  77 NW6       29.70S
KINDERSLEY     PTCLDY    57  37  47 SW17G23   29.56F
LLOYDMINSTER   CLEAR     55  46  71 NW13      29.49S
PRINCE ALBERT  PTCLDY    59  50  72 W3        29.50R
REGINA         LGT RAIN  70  50  49 SW16G26   29.66R
YORKTON        PTCLDY    61  52  72 S10       29.64R
N. BATTLEFORD    N/A     59  43  55 SW9       29.51F
LA RONGE       CLEAR     57  54  88 S3        29.45S
SASKATOON      MOCLDY    61  43  51 SW14      29.57S
SWIFT CURRENT  MOCLDY    63  43  48 W14G20    29.70S
$$
NOTE: THESE ARE AUTOMATED STATIONS WITH LIMITED QUALITY CONTROL
      "FAIR" INDICATES FEW OR NO CLOUDS BELOW 12,000 FEET WITH NO
      SIGNIFICANT WEATHER AND/OR OBSTRUCTIONS TO VISIBILITY.
      SKY/WX - SKY CONDITION AND SIGNIFICANT WEATHER.
      TMP - AIR TEMPERATURE.    DP   - DEWPOINT TEMPERATURE.
      RH  - RELATIVE HUMIDITY.  PRES - PRESSURE.
      HX  - HEAT INDEX.         WCI  - WIND CHILL INDEX.
$


USA.gov is the U.S. government's official web portal to all federal, state and local government web resources and services.